When you browse on this site, cookies collect data to enhance your experience and personalize the content and advertising you see.
Visit our Privacy Policy to learn more. By continuing to use the site, you agree to this use of cookies and data.
  • In Slovakia
  • List of Countries
  • For 7 days
  • Water Temperature
  • Satellite Maps
  • Weather Map
  • Weather Widgets
  • user-avatar
    Login

    Hourly Weather Wesolka

    Today, 22 April, Monday

    Time Temperature Precipitation Wind Pressure Humidity
    00:00 +6°C° 0.2 mm 2 mps 749 mmHg 92%
    01:00 +5°C° 0.2 mm 3 mps 749 mmHg 93%
    02:00 +5°C° 0.2 mm 4 mps 749 mmHg 93%
    03:00 +6°C° 0.2 mm 4 mps 750 mmHg 92%
    04:00 +6°C° 0.2 mm 5 mps 750 mmHg 92%
    05:00 +7°C° 0.2 mm 5 mps 750 mmHg 91%
    06:00 +7°C° 0 mm 6 mps 750 mmHg 89%
    07:00 +7°C° 0 mm 6 mps 751 mmHg 87%
    08:00 +8°C° 0 mm 6 mps 751 mmHg 85%
    09:00 +9°C° 0 mm 7 mps 751 mmHg 79%
    10:00 +11°C° 0 mm 7 mps 752 mmHg 72%
    11:00 +14°C° 0 mm 7 mps 752 mmHg 65%
    12:00 +14°C° 0 mm 7 mps 752 mmHg 61%
    13:00 +15°C° 0 mm 8 mps 752 mmHg 56%
    14:00 +15°C° 0 mm 8 mps 752 mmHg 51%
    15:00 +15°C° 0 mm 8 mps 753 mmHg 50%
    16:00 +15°C° 0 mm 7 mps 753 mmHg 49%
    17:00 +15°C° 0 mm 7 mps 753 mmHg 48%
    18:00 +14°C° 0 mm 6 mps 753 mmHg 51%
    19:00 +12°C° 0 mm 5 mps 753 mmHg 54%
    20:00 +10°C° 0 mm 5 mps 753 mmHg 57%
    21:00 +9°C° 0 mm 5 mps 754 mmHg 57%
    22:00 +8°C° 0 mm 5 mps 754 mmHg 56%
    23:00 +8°C° 0 mm 5 mps 754 mmHg 56%

    Tomorrow, 23 April, Tuesday

    Time Temperature Precipitation Wind Pressure Humidity
    00:00 +8°C° 0 mm 5 mps 754 mmHg 56%
    01:00 +7°C° 0 mm 5 mps 754 mmHg 56%
    02:00 +7°C° 0 mm 6 mps 754 mmHg 57%
    03:00 +7°C° 0 mm 6 mps 754 mmHg 57%
    04:00 +5°C° 0 mm 6 mps 754 mmHg 58%
    05:00 +5°C° 0 mm 6 mps 754 mmHg 59%
    06:00 +6°C° 0 mm 7 mps 754 mmHg 58%
    07:00 +7°C° 0 mm 8 mps 754 mmHg 56%
    08:00 +10°C° 0 mm 8 mps 755 mmHg 54%
    09:00 +11°C° 0 mm 9 mps 754 mmHg 51%
    10:00 +12°C° 0 mm 9 mps 754 mmHg 47%
    11:00 +13°C° 0 mm 10 mps 754 mmHg 44%
    12:00 +14°C° 0 mm 10 mps 754 mmHg 43%
    13:00 +14°C° 0 mm 10 mps 754 mmHg 42%
    14:00 +16°C° 0 mm 10 mps 753 mmHg 42%
    15:00 +16°C° 0 mm 10 mps 753 mmHg 43%
    16:00 +16°C° 0 mm 9 mps 752 mmHg 44%
    17:00 +16°C° 0 mm 9 mps 752 mmHg 45%
    18:00 +13°C° 0 mm 8 mps 752 mmHg 48%
    19:00 +12°C° 0 mm 7 mps 752 mmHg 52%
    20:00 +11°C° 0 mm 6 mps 752 mmHg 55%
    21:00 +11°C° 0 mm 6 mps 752 mmHg 55%
    22:00 +10°C° 0 mm 7 mps 752 mmHg 55%
    23:00 +10°C° 0 mm 7 mps 752 mmHg 56%

    Day after tomorrow, 24 April, Wednesday

    Time Temperature Precipitation Wind Pressure Humidity
    00:00 +9°C° 0 mm 7 mps 752 mmHg 56%
    01:00 +9°C° 0 mm 7 mps 752 mmHg 57%
    02:00 +9°C° 0 mm 8 mps 752 mmHg 58%
    03:00 +9°C° 0 mm 8 mps 752 mmHg 57%
    04:00 +7°C° 0 mm 8 mps 752 mmHg 57%
    05:00 +7°C° 0 mm 8 mps 751 mmHg 56%
    06:00 +7°C° 0 mm 8 mps 752 mmHg 56%
    07:00 +8°C° 0 mm 9 mps 752 mmHg 57%
    08:00 +10°C° 0 mm 9 mps 752 mmHg 57%
    09:00 +11°C° 0 mm 10 mps 752 mmHg 55%
    10:00 +12°C° 0 mm 10 mps 752 mmHg 53%
    11:00 +13°C° 0 mm 10 mps 752 mmHg 51%
    12:00 +14°C° 0 mm 10 mps 751 mmHg 50%
    13:00 +16°C° 0 mm 10 mps 751 mmHg 50%
    14:00 +17°C° 0 mm 10 mps 751 mmHg 49%
    15:00 +16°C° 0 mm 9 mps 751 mmHg 53%
    16:00 +15°C° 0 mm 8 mps 751 mmHg 57%
    17:00 +13°C° 0 mm 8 mps 750 mmHg 61%
    18:00 +14°C° 0 mm 7 mps 750 mmHg 63%
    19:00 +14°C° 0 mm 7 mps 751 mmHg 64%
    20:00 +13°C° 0 mm 6 mps 751 mmHg 65%
    21:00 +13°C° 0 mm 6 mps 751 mmHg 66%
    22:00 +11°C° 0 mm 6 mps 751 mmHg 68%
    23:00 +11°C° 0 mm 6 mps 751 mmHg 69%

    25 April, Thursday

    Time Temperature Precipitation Wind Pressure Humidity
    00:00 +11°C° 0 mm 6 mps 751 mmHg 70%
    01:00 +10°C° 0 mm 6 mps 751 mmHg 72%
    02:00 +9°C° 0 mm 5 mps 751 mmHg 74%
    03:00 +9°C° 0 mm 5 mps 751 mmHg 75%
    04:00 +9°C° 0 mm 5 mps 751 mmHg 76%
    05:00 +8°C° 0 mm 5 mps 751 mmHg 78%
    06:00 +9°C° 0 mm 6 mps 751 mmHg 75%
    07:00 +11°C° 0 mm 6 mps 751 mmHg 73%
    08:00 +13°C° 0 mm 6 mps 751 mmHg 71%
    09:00 +15°C° 0 mm 6 mps 751 mmHg 67%
    10:00 +17°C° 0 mm 7 mps 751 mmHg 62%
    11:00 +20°C° 0 mm 7 mps 751 mmHg 58%
    12:00 +21°C° 0 mm 7 mps 750 mmHg 55%
    13:00 +22°C° 0 mm 7 mps 750 mmHg 52%
    14:00 +23°C° 0 mm 8 mps 750 mmHg 50%
    15:00 +23°C° 0 mm 7 mps 750 mmHg 52%
    16:00 +23°C° 0 mm 7 mps 749 mmHg 53%
    17:00 +22°C° 0 mm 6 mps 749 mmHg 55%
    18:00 +21°C° 0.1 mm 6 mps 749 mmHg 60%
    19:00 +20°C° 0.1 mm 6 mps 749 mmHg 65%
    20:00 +17°C° 0.1 mm 5 mps 749 mmHg 70%
    21:00 +16°C° 0 mm 5 mps 749 mmHg 73%
    22:00 +16°C° 0 mm 5 mps 749 mmHg 76%
    23:00 +15°C° 0 mm 5 mps 749 mmHg 79%

    26 April, Friday

    Time Temperature Precipitation Wind Pressure Humidity
    00:00 +15°C° 0 mm 5 mps 749 mmHg 82%
    01:00 +14°C° 0 mm 5 mps 749 mmHg 86%
    02:00 +14°C° 0 mm 4 mps 749 mmHg 90%
    03:00 +13°C° 0 mm 4 mps 748 mmHg 92%
    04:00 +13°C° 0 mm 4 mps 748 mmHg 93%
    05:00 +13°C° 0 mm 4 mps 748 mmHg 95%
    06:00 +14°C° 0 mm 4 mps 748 mmHg 90%
    07:00 +15°C° 0 mm 5 mps 747 mmHg 85%
    08:00 +16°C° 0 mm 5 mps 747 mmHg 81%
    09:00 +19°C° 0 mm 6 mps 747 mmHg 73%
    10:00 +21°C° 0 mm 6 mps 747 mmHg 66%
    11:00 +23°C° 0 mm 7 mps 746 mmHg 58%
    12:00 +24°C° 0 mm 7 mps 746 mmHg 55%
    13:00 +26°C° 0 mm 8 mps 746 mmHg 51%
    14:00 +27°C° 0 mm 8 mps 745 mmHg 48%
    15:00 +26°C° 0 mm 7 mps 745 mmHg 49%
    16:00 +26°C° 0 mm 7 mps 745 mmHg 50%
    17:00 +26°C° 0 mm 6 mps 744 mmHg 51%
    18:00 +24°C° 0.1 mm 6 mps 744 mmHg 55%
    19:00 +22°C° 0.1 mm 6 mps 744 mmHg 59%
    20:00 +21°C° 0.1 mm 5 mps 744 mmHg 63%
    21:00 +20°C° 0.7 mm 5 mps 744 mmHg 68%
    22:00 +19°C° 0.7 mm 5 mps 745 mmHg 73%
    23:00 +17°C° 0.7 mm 5 mps 745 mmHg 78%

    27 April, Saturday

    Time Temperature Precipitation Wind Pressure Humidity
    00:00 +17°C° 0.8 mm 4 mps 745 mmHg 81%
    01:00 +17°C° 0.8 mm 3 mps 745 mmHg 85%
    02:00 +16°C° 0.8 mm 3 mps 745 mmHg 89%
    03:00 +16°C° 0 mm 3 mps 745 mmHg 90%
    04:00 +16°C° 0 mm 3 mps 745 mmHg 90%
    05:00 +15°C° 0 mm 4 mps 745 mmHg 91%
    06:00 +15°C° 0.1 mm 4 mps 746 mmHg 89%
    07:00 +15°C° 0.1 mm 4 mps 746 mmHg 87%
    08:00 +17°C° 0.1 mm 4 mps 746 mmHg 85%
    09:00 +17°C° 0 mm 4 mps 747 mmHg 81%
    10:00 +18°C° 0 mm 4 mps 747 mmHg 77%
    11:00 +17°C° 0 mm 5 mps 747 mmHg 73%
    12:00 +18°C° 0.1 mm 4 mps 747 mmHg 73%
    13:00 +18°C° 0.1 mm 4 mps 748 mmHg 72%
    14:00 +18°C° 0.1 mm 4 mps 748 mmHg 71%
    15:00 +18°C° 0 mm 4 mps 748 mmHg 72%
    16:00 +17°C° 0 mm 4 mps 748 mmHg 72%
    17:00 +17°C° 0 mm 4 mps 748 mmHg 73%
    18:00 +15°C° 0 mm 4 mps 748 mmHg 75%
    19:00 +14°C° 0 mm 4 mps 748 mmHg 76%
    20:00 +14°C° 0 mm 4 mps 749 mmHg 78%
    21:00 +13°C° 0 mm 4 mps 749 mmHg 79%
    22:00 +13°C° 0 mm 3 mps 749 mmHg 80%
    23:00 +12°C° 0 mm 3 mps 750 mmHg 80%
    Show more